QPF
0.00 0.00 0.00 0.00 0.00 0.00 0.00 0.00 0.00 0.00 0.00 0.00 0.00 0.00 0.00 0.00 0.00 0.00 0.01 0.02 0.00 0.00 0.00 0.00 0.00 0.00 0.00 0.01 0.00 0.00 0.00 0.01 0.00 0.00 0.00 0.00 0.00 0.00 0.00 0.00 0.00 0.00 0.00 0.00
0.00 0.00 0.00 0.00 0.00 0.00 0.00 0.00 0.00 0.00 0.00 0.00 0.00 0.00 0.00 0.00 0.00 0.00 0.00 0.02 0.00 0.00 0.00 0.00 0.02 0.02 0.00 0.01 0.00 0.00 0.03 0.03 0.00 0.00 0.00 0.00 0.00 0.00 0.00 0.00 0.00 0.00 0.00 0.00
0.00 0.00 0.00 0.00 0.00 0.00 0.00 0.00 0.00 0.00 0.00 0.00 0.00 0.02 0.00 0.00 0.00 0.00 0.00 0.00 0.00 0.00 0.00 0.00 0.00 0.00 0.05 0.06 0.01 0.02 0.06 0.06 0.02 0.00 0.00 0.00 0.00 0.00 0.01 0.00 0.00 0.00 0.00 0.00
0.00 0.00 0.00 0.00 0.00 0.00 0.00 0.00 0.00 0.00 0.00 0.01 0.00 0.02 0.02 0.00 0.00 0.00 0.00 0.00 0.00 0.00 0.00 0.00 0.00 0.00 0.03 0.05 0.02 0.08 0.12 0.09 0.05 0.00 0.00 0.00 0.00 0.00 0.00 0.00 0.00 0.03 0.01 0.00
0.00 0.00 0.00 0.00 0.00 0.00 0.00 0.00 0.00 0.00 0.00 0.00 0.00 0.01 0.03 0.00 0.00 0.00 0.00 0.00 0.00 0.00 0.01 0.01 0.00 0.00 0.00 0.02 0.07 0.06 0.05 0.05 0.02 0.01 0.00 0.00 0.00 0.00 0.00 0.01 0.02 0.04 0.05 0.01
0.00 0.00 0.00 0.00 0.00 0.00 0.00 0.00 0.00 0.00 0.00 0.00 0.00 0.00 0.02 0.00 0.00 0.00 0.00 0.00 0.00 0.00 0.00 0.00 0.00 0.00 0.00 0.01 0.01 0.02 0.03 0.06 0.02 0.00 0.00 0.00 0.00 0.00 0.02 0.03 0.02 0.02 0.00 0.00
0.00 0.00 0.00 0.00 0.00 0.00 0.00 0.00 0.00 0.00 0.00 0.01 0.00 0.00 0.01 0.00 0.00 0.00 0.00 0.00 0.00 0.00 0.00 0.00 0.00 0.01 0.01 0.02 0.01 0.01 0.00 0.01 0.01 0.00 0.00 0.00 0.00 0.01 0.04 0.04 0.01 0.00 0.00 0.00
0.00 0.00 0.00 0.00 0.00 0.00 0.00 0.00 0.00 0.00 0.00 0.00 0.00 0.01 0.00 0.00 0.00 0.00 0.00 0.00 0.00 0.00 0.00 0.00 0.00 0.00 0.01 0.01 0.00 0.00 0.01 0.01 0.00 0.00 0.00 0.00 0.00 0.00 0.00 0.00 0.00 0.00 0.00 0.00
0.00 0.00 0.01 0.00 0.00 0.00 0.00 0.00 0.00 0.00 0.00 0.00 0.00 0.01 0.00 0.00 0.00 0.00 0.00 0.00 0.00 0.00 0.00 0.00 0.00 0.00 0.00 0.00 0.00 0.00 0.00 0.00 0.00 0.00 0.00 0.00 0.00 0.00 0.00 0.00 0.01 0.02 0.01 0.00
0.00 0.00 0.00 0.00 0.00 0.00 0.00 0.00 0.00 0.00 0.00 0.00 0.00 0.01 0.01 0.00 0.00 0.00 0.00 0.00 0.00 0.00 0.00 0.00 0.00 0.00 0.00 0.00 0.00 0.00 0.00 0.00 0.00 0.00 0.01 0.01 0.00 0.02 0.01 0.00 0.02 0.04 0.01 0.01
0.00 0.00 0.00 0.00 0.00 0.00 0.00 0.00 0.00 0.00 0.00 0.00 0.00 0.02 0.00 0.00 0.00 0.00 0.00 0.00 0.00 0.00 0.00 0.00 0.00 0.00 0.00 0.00 0.00 0.00 0.00 0.00 0.00 0.01 0.01 0.00 0.00 0.01 0.03 0.02 0.02 0.02 0.04 0.03
0.00 0.00 0.00 0.00 0.00 0.00 0.00 0.00 0.00 0.00 0.00 0.00 0.00 0.01 0.00 0.00 0.00 0.00 0.00 0.00 0.00 0.00 0.00 0.00 0.00 0.00 0.00 0.00 0.00 0.00 0.00 0.00 0.00 0.00 0.02 0.01 0.01 0.00 0.02 0.04 0.02 0.00 0.02 0.04
0.00 0.00 0.00 0.00 0.00 0.00 0.00 0.00 0.00 0.00 0.00 0.00 0.00 0.02 0.00 0.00 0.00 0.00 0.00 0.00 0.00 0.00 0.00 0.00 0.00 0.00 0.00 0.00 0.00 0.00 0.00 0.00 0.00 0.02 0.03 0.03 0.03 0.02 0.02 0.03 0.04 0.02 0.01 0.01
0.00 0.00 0.00 0.00 0.00 0.00 0.00 0.00 0.00 0.00 0.00 0.00 0.00 0.00 0.00 0.00 0.00 0.00 0.00 0.00 0.00 0.00 0.00 0.00 0.00 0.00 0.00 0.00 0.00 0.00 0.00 0.00 0.00 0.02 0.05 0.06 0.07 0.04 0.02 0.02 0.03 0.03 0.01 0.00
0.00 0.00 0.00 0.00 0.00 0.00 0.00 0.00 0.00 0.00 0.00 0.00 0.00 0.00 0.00 0.00 0.00 0.00 0.00 0.00 0.00 0.00 0.00 0.00 0.00 0.00 0.00 0.00 0.00 0.00 0.00 0.00 0.00 0.01 0.03 0.06 0.09 0.07 0.05 0.06 0.06 0.05 0.02 0.00
0.00 0.00 0.00 0.00 0.00 0.00 0.00 0.00 0.00 0.00 0.00 0.00 0.00 0.00 0.00 0.00 0.00 0.00 0.00 0.00 0.00 0.00 0.00 0.00 0.00 0.00 0.00 0.00 0.00 0.00 0.00 0.00 0.00 0.00 0.01 0.06 0.09 0.07 0.06 0.09 0.08 0.03 0.02 0.01
0.00 0.00 0.00 0.00 0.00 0.00 0.00 0.00 0.00 0.00 0.00 0.00 0.00 0.01 0.00 0.00 0.00 0.00 0.00 0.00 0.00 0.00 0.00 0.00 0.00 0.00 0.00 0.00 0.00 0.00 0.00 0.00 0.00 0.00 0.00 0.02 0.03 0.04 0.04 0.07 0.09 0.04 0.03 0.02
0.00 0.00 0.00 0.00 0.00 0.00 0.00 0.00 0.00 0.00 0.00 0.00 0.00 0.00 0.00 0.00 0.00 0.00 0.00 0.00 0.00 0.00 0.00 0.00 0.00 0.00 0.00 0.00 0.00 0.00 0.00 0.00 0.00 0.00 0.00 0.01 0.01 0.02 0.02 0.05 0.09 0.05 0.05 0.06
0.00 0.00 0.00 0.00 0.00 0.00 0.00 0.00 0.00 0.00 0.00 0.00 0.00 0.00 0.00 0.00 0.00 0.00 0.00 0.00 0.00 0.00 0.00 0.00 0.00 0.00 0.00 0.00 0.00 0.00 0.00 0.00 0.00 0.00 0.00 0.02 0.03 0.04 0.02 0.05 0.10 0.12 0.12 0.09
0.00 0.00 0.00 0.00 0.00 0.00 0.01 0.00 0.00 0.00 0.00 0.00 0.00 0.00 0.00 0.00 0.00 0.00 0.00 0.00 0.00 0.00 0.00 0.00 0.00 0.00 0.00 0.00 0.00 0.01 0.03 0.02 0.01 0.00 0.00 0.02 0.05 0.05 0.03 0.03 0.03 0.07 0.12 0.13
0.00 0.00 0.01 0.00 0.00 0.00 0.00 0.00 0.00 0.00 0.01 0.00 0.00 0.00 0.00 0.00 0.00 0.00 0.00 0.00 0.00 0.00 0.00 0.00 0.00 0.00 0.00 0.00 0.01 0.02 0.01 0.01 0.00 0.00 0.00 0.01 0.03 0.05 0.05 0.06 0.06 0.02 0.03 0.09
0.00 0.00 0.00 0.00 0.00 0.01 0.00 0.00 0.00 0.00 0.00 0.00 0.00 0.00 0.00 0.00 0.00 0.00 0.00 0.00 0.00 0.00 0.00 0.00 0.00 0.00 0.00 0.00 0.00 0.00 0.00 0.00 0.00 0.00 0.00 0.02 0.04 0.02 0.03 0.05 0.07 0.03 0.01 0.04
0.00 0.00 0.00 0.00 0.00 0.00 0.00 0.00 0.00 0.00 0.00 0.00 0.00 0.00 0.00 0.00 0.00 0.00 0.00 0.00 0.00 0.00 0.00 0.00 0.00 0.00 0.00 0.00 0.00 0.00 0.00 0.00 0.00 0.00 0.00 0.01 0.03 0.04 0.02 0.05 0.09 0.10 0.05 0.05
0.00 0.00 0.00 0.00 0.00 0.00 0.00 0.00 0.00 0.00 0.00 0.00 0.00 0.00 0.00 0.00 0.00 0.00 0.00 0.00 0.00 0.00 0.00 0.00 0.00 0.00 0.00 0.00 0.00 0.00 0.00 0.00 0.00 0.00 0.00 0.00 0.02 0.02 0.02 0.04 0.07 0.05 0.05 0.04
0.00 0.00 0.00 0.00 0.00 0.00 0.00 0.00 0.00 0.00 0.00 0.00 0.00 0.00 0.00 0.00 0.00 0.00 0.00 0.00 0.00 0.00 0.00 0.00 0.00 0.00 0.00 0.00 0.00 0.00 0.00 0.01 0.01 0.01 0.01 0.00 0.00 0.00 0.01 0.02 0.07 0.07 0.03 0.00
0.00 0.00 0.00 0.00 0.00 0.00 0.00 0.00 0.00 0.00 0.00 0.00 0.00 0.00 0.00 0.00 0.00 0.00 0.00 0.00 0.00 0.00 0.00 0.00 0.00 0.00 0.00 0.00 0.00 0.00 0.01 0.01 0.01 0.01 0.01 0.00 0.00 0.00 0.00 0.00 0.05 0.05 0.01 0.00
MSLP
1005.05 1004.78 1005.98 1006.28 1005.31 1005.70 1005.58 1005.51 1005.53 1007.02 1008.84 1009.44 1009.95 1012.05 1014.23 1015.04 1015.45 1015.64 1016.11 1016.64 1017.03 1017.44 1017.94 1018.81 1019.36 1019.35 1019.82 1020.56 1021.48 1021.49 1021.57 1021.61 1021.15 1020.69 1020.38 1020.01 1019.74 1019.63 1019.36 1019.60 1019.98 1020.26 1020.00 1019.70
1004.69 1004.09 1004.49 1005.01 1005.46 1005.56 1005.21 1005.03 1006.42 1006.84 1008.46 1009.36 1009.77 1011.44 1013.79 1014.57 1014.91 1015.25 1015.58 1015.92 1016.47 1016.83 1017.30 1017.80 1018.47 1019.01 1019.59 1020.56 1020.87 1021.02 1021.42 1020.86 1020.73 1020.30 1020.22 1020.48 1020.24 1019.81 1019.51 1019.87 1020.13 1020.16 1019.71 1019.66
1004.29 1003.89 1004.73 1005.08 1004.94 1005.14 1004.80 1006.22 1005.65 1006.57 1007.81 1008.95 1009.49 1010.20 1012.75 1013.91 1014.48 1014.61 1014.94 1015.27 1016.00 1016.26 1016.18 1016.95 1017.48 1017.75 1018.88 1019.53 1019.85 1020.53 1020.37 1020.24 1020.40 1020.24 1020.06 1019.89 1019.61 1019.39 1020.16 1020.00 1020.09 1020.04 1019.54 1019.45
1004.19 1003.99 1004.87 1004.84 1004.56 1005.85 1005.18 1005.99 1006.25 1006.43 1006.96 1008.17 1010.85 1009.72 1011.58 1013.26 1013.72 1014.21 1014.63 1015.04 1015.10 1015.42 1015.66 1015.98 1016.34 1016.84 1017.59 1017.70 1018.06 1018.86 1019.30 1019.67 1019.92 1019.88 1019.77 1019.69 1019.87 1019.71 1019.76 1019.66 1019.67 1019.74 1019.41 1019.60
1004.27 1004.48 1004.64 1004.86 1005.26 1005.80 1005.81 1006.48 1006.55 1006.63 1006.70 1007.50 1008.12 1010.01 1011.50 1012.76 1013.75 1014.57 1014.82 1014.75 1014.91 1015.64 1015.80 1016.11 1016.29 1017.43 1016.27 1016.65 1016.57 1017.72 1017.91 1017.92 1018.56 1019.20 1019.56 1019.47 1019.18 1019.03 1019.26 1019.43 1019.58 1019.13 1019.13 1019.34
1004.71 1005.45 1005.80 1005.84 1006.36 1006.54 1006.77 1006.57 1006.03 1006.19 1006.85 1006.97 1008.68 1010.34 1011.87 1012.97 1013.98 1014.68 1015.25 1015.41 1015.40 1015.44 1015.78 1016.38 1016.58 1017.02 1017.56 1019.05 1018.25 1018.22 1017.47 1015.82 1017.83 1018.37 1018.89 1019.36 1019.42 1019.39 1019.32 1019.53 1019.24 1019.07 1018.76 1018.92
1004.90 1005.29 1006.33 1007.00 1006.56 1006.66 1006.81 1006.09 1005.12 1004.89 1006.29 1006.79 1008.62 1009.44 1011.54 1013.02 1014.02 1015.22 1015.43 1015.64 1016.04 1015.79 1016.00 1016.23 1016.54 1016.82 1017.09 1017.28 1017.81 1018.19 1017.82 1017.58 1017.02 1017.44 1018.35 1018.92 1019.05 1019.19 1019.42 1019.06 1018.62 1018.70 1018.50 1018.35
1004.28 1005.86 1006.60 1006.86 1006.98 1006.88 1006.58 1006.43 1006.65 1006.03 1005.99 1006.50 1008.03 1009.51 1012.14 1013.36 1014.67 1015.60 1015.83 1015.81 1015.93 1016.22 1016.40 1016.53 1016.78 1017.01 1016.63 1016.54 1016.73 1017.06 1017.53 1017.79 1016.94 1016.95 1018.00 1018.38 1018.60 1018.59 1018.29 1018.56 1018.37 1018.43 1018.43 1018.24
1004.87 1005.65 1007.17 1007.59 1007.52 1007.77 1006.60 1006.68 1007.04 1007.47 1007.37 1007.15 1009.28 1011.90 1012.75 1013.72 1014.19 1015.41 1015.67 1015.98 1016.33 1016.46 1016.83 1017.37 1017.56 1017.72 1017.77 1017.52 1017.31 1017.39 1017.31 1017.22 1017.07 1017.17 1017.55 1017.21 1018.07 1018.21 1018.17 1018.26 1018.35 1018.15 1018.25 1017.79
1005.88 1006.29 1006.73 1007.48 1008.16 1007.61 1007.79 1007.86 1007.75 1007.03 1007.00 1006.98 1008.27 1009.99 1012.53 1013.75 1014.36 1015.26 1015.81 1016.08 1016.65 1017.10 1017.59 1017.92 1017.97 1018.01 1018.07 1017.96 1017.68 1017.73 1017.64 1017.98 1018.10 1017.09 1017.44 1018.02 1017.87 1018.32 1018.01 1017.63 1018.14 1018.11 1017.95 1017.82
1007.03 1007.28 1007.09 1007.60 1007.47 1007.79 1007.73 1007.35 1008.06 1008.63 1008.59 1008.33 1008.93 1011.46 1013.35 1014.22 1014.90 1015.36 1015.96 1016.99 1017.16 1017.48 1017.38 1017.35 1017.09 1017.19 1017.40 1017.63 1017.52 1017.65 1017.65 1017.43 1017.55 1017.73 1017.12 1017.35 1017.98 1018.24 1017.96 1017.91 1018.18 1017.28 1017.49 1017.71
1008.58 1008.33 1007.72 1007.16 1008.60 1009.09 1009.08 1009.17 1009.33 1009.07 1008.95 1008.89 1010.04 1012.23 1014.34 1014.95 1015.56 1016.42 1017.05 1017.75 1017.67 1017.59 1017.41 1017.50 1017.66 1017.56 1017.68 1017.84 1017.82 1017.79 1017.81 1017.47 1017.01 1017.06 1017.46 1017.66 1017.50 1017.92 1017.72 1017.56 1017.45 1017.41 1016.92 1016.83
1009.25 1008.48 1008.29 1007.63 1008.99 1009.65 1009.33 1009.76 1010.17 1010.27 1010.46 1009.85 1010.23 1012.37 1014.30 1015.45 1016.74 1017.54 1017.76 1017.91 1017.32 1017.63 1017.64 1017.79 1017.69 1017.54 1017.63 1017.64 1017.62 1017.70 1017.70 1017.46 1017.34 1017.83 1017.66 1017.62 1017.38 1017.49 1017.55 1017.56 1017.43 1017.13 1016.93 1016.46
1010.31 1009.86 1009.49 1008.76 1008.92 1009.38 1009.63 1010.32 1010.55 1010.75 1010.52 1010.27 1010.84 1012.44 1014.31 1016.10 1016.86 1017.52 1017.92 1017.54 1017.42 1017.51 1017.62 1017.70 1017.81 1017.82 1017.81 1017.72 1017.88 1017.81 1017.66 1017.48 1017.22 1017.16 1017.85 1017.65 1017.32 1017.00 1017.29 1017.33 1017.27 1016.76 1016.33 1015.76
1010.56 1010.23 1010.15 1010.05 1010.30 1010.27 1010.38 1010.65 1010.89 1010.95 1011.28 1011.68 1011.89 1012.89 1014.41 1015.94 1016.62 1016.78 1017.32 1017.50 1017.48 1017.38 1017.59 1017.68 1017.69 1017.91 1017.98 1018.13 1018.22 1017.98 1017.91 1017.86 1017.79 1016.90 1016.85 1017.48 1017.22 1016.65 1016.81 1016.90 1016.92 1016.29 1015.72 1015.40
1011.14 1010.72 1010.67 1010.56 1010.93 1010.86 1010.81 1011.25 1011.66 1011.88 1012.12 1012.38 1012.51 1013.21 1015.03 1015.95 1016.41 1016.81 1017.32 1017.46 1017.38 1017.48 1017.64 1017.68 1017.55 1017.72 1017.82 1018.03 1018.13 1018.07 1018.05 1017.74 1017.56 1017.40 1016.52 1016.85 1016.92 1016.44 1016.47 1016.70 1016.32 1015.76 1015.27 1014.93
1011.08 1010.84 1011.03 1009.92 1010.97 1011.15 1010.79 1010.60 1011.36 1011.89 1012.49 1012.91 1013.32 1014.42 1015.31 1015.60 1016.39 1017.00 1017.22 1017.34 1017.52 1017.69 1017.71 1017.54 1017.53 1017.71 1017.87 1018.00 1018.05 1018.01 1017.74 1017.89 1017.48 1016.98 1016.58 1016.01 1016.26 1016.17 1016.10 1015.97 1015.56 1015.10 1014.92 1014.27
1011.06 1011.40 1011.07 1010.44 1011.24 1010.80 1011.25 1011.53 1012.15 1012.60 1012.86 1013.58 1014.27 1015.05 1015.70 1016.52 1016.79 1016.92 1017.30 1017.40 1017.66 1017.72 1017.56 1017.46 1017.60 1017.76 1018.03 1018.06 1018.39 1018.25 1017.94 1017.44 1017.35 1016.94 1016.40 1015.99 1015.94 1015.77 1015.50 1015.38 1015.13 1014.89 1014.51 1014.32
1011.32 1011.31 1010.77 1010.75 1010.19 1009.93 1010.85 1012.06 1012.62 1012.84 1013.08 1013.81 1014.64 1015.42 1016.01 1016.71 1016.76 1016.42 1017.26 1017.56 1017.65 1017.54 1017.66 1017.72 1017.81 1017.94 1018.16 1018.38 1018.15 1018.07 1017.69 1017.64 1017.12 1016.92 1016.01 1016.12 1015.87 1015.58 1015.45 1015.35 1015.20 1014.92 1014.55 1014.16
1011.34 1011.73 1011.55 1010.68 1010.87 1010.26 1011.48 1012.72 1013.36 1013.81 1013.72 1014.42 1015.54 1015.96 1016.49 1016.88 1016.18 1015.91 1017.31 1017.54 1017.68 1017.97 1018.23 1018.36 1018.44 1018.22 1018.35 1018.41 1018.33 1018.49 1018.12 1017.27 1017.36 1017.08 1016.41 1016.15 1015.74 1015.23 1015.34 1015.41 1015.26 1014.89 1014.57 1014.25
1010.54 1011.26 1010.55 1010.43 1010.52 1010.93 1012.30 1013.30 1013.95 1014.32 1015.37 1015.86 1016.25 1016.51 1016.95 1017.18 1017.51 1017.74 1017.64 1017.80 1018.23 1018.61 1018.79 1018.95 1018.79 1018.71 1018.77 1018.88 1018.98 1018.91 1018.15 1018.11 1017.71 1017.12 1016.78 1016.44 1015.74 1015.31 1014.69 1014.82 1014.88 1014.70 1014.48 1014.11
1010.35 1010.40 1009.98 1010.10 1010.77 1011.75 1013.45 1013.88 1014.38 1015.49 1016.09 1016.36 1016.76 1016.93 1017.25 1017.59 1017.84 1017.78 1018.00 1018.35 1018.70 1018.96 1019.02 1019.09 1019.06 1019.04 1019.15 1019.58 1019.68 1019.53 1019.05 1018.93 1018.00 1017.38 1016.70 1016.47 1016.13 1015.39 1014.70 1014.32 1014.27 1014.21 1014.34 1014.12
1010.81 1011.46 1011.86 1012.12 1012.47 1013.82 1014.02 1014.66 1015.55 1016.03 1016.32 1016.66 1016.89 1017.28 1017.73 1017.86 1017.93 1018.22 1018.52 1018.75 1019.09 1019.26 1019.34 1019.41 1019.30 1019.26 1019.39 1019.56 1019.47 1019.21 1019.15 1018.99 1018.32 1017.55 1016.69 1016.13 1016.03 1015.73 1014.79 1014.38 1014.17 1014.04 1014.18 1014.22
1011.07 1012.05 1012.14 1012.55 1013.55 1014.07 1014.76 1015.47 1015.99 1016.30 1016.44 1016.85 1017.16 1017.50 1017.81 1018.15 1018.43 1018.64 1018.88 1019.17 1019.39 1019.56 1019.52 1019.48 1019.44 1019.58 1019.84 1019.65 1019.65 1019.96 1019.83 1019.07 1018.52 1017.98 1017.24 1016.55 1015.66 1015.66 1015.11 1014.48 1014.27 1013.95 1013.89 1014.09
1011.49 1012.25 1012.10 1012.48 1013.52 1014.41 1014.95 1015.45 1015.84 1016.40 1016.80 1017.02 1017.09 1017.58 1018.21 1018.62 1018.89 1019.04 1019.22 1019.58 1019.85 1019.82 1019.61 1019.64 1019.83 1019.98 1020.08 1019.92 1020.44 1020.20 1019.79 1019.33 1018.56 1018.00 1017.20 1016.61 1016.20 1015.65 1015.05 1014.70 1014.71 1014.39 1014.43 1014.80
1011.54 1012.03 1012.39 1012.44 1013.52 1014.00 1014.45 1015.44 1015.99 1016.47 1016.73 1017.10 1017.47 1017.85 1018.37 1018.79 1019.13 1019.39 1019.62 1019.99 1020.16 1020.03 1019.91 1019.78 1020.00 1020.29 1020.20 1020.52 1020.56 1020.43 1019.85 1019.47 1018.92 1018.35 1017.40 1017.02 1016.46 1015.99 1015.42 1014.63 1014.63 1014.78 1014.94 1015.22
Thickness
5818 5800 5764 5776 5804 5798 5797 5793 5788 5772 5765 5753 5748 5727 5707 5709 5707 5703 5698 5693 5689 5684 5682 5672 5665 5664 5655 5646 5632 5627 5623 5618 5617 5616 5614 5612 5609 5609 5607 5601 5596 5590 5589 5588
5805 5795 5811 5813 5805 5794 5795 5788 5753 5770 5762 5749 5744 5726 5708 5709 5704 5703 5698 5692 5686 5682 5676 5671 5664 5658 5649 5637 5630 5626 5617 5617 5613 5611 5608 5601 5599 5598 5598 5591 5585 5581 5581 5579
5796 5813 5814 5803 5799 5788 5795 5762 5777 5767 5757 5753 5744 5728 5707 5710 5707 5706 5703 5696 5686 5679 5677 5667 5665 5661 5648 5638 5632 5621 5619 5615 5608 5604 5601 5597 5595 5594 5585 5583 5579 5575 5575 5572
5805 5823 5802 5798 5797 5779 5772 5783 5775 5767 5754 5725 5713 5717 5710 5701 5699 5698 5695 5689 5687 5683 5681 5674 5668 5660 5652 5650 5641 5629 5620 5611 5603 5599 5595 5591 5584 5581 5578 5577 5574 5568 5568 5565
5796 5799 5798 5789 5786 5790 5772 5778 5765 5761 5753 5745 5746 5709 5697 5707 5684 5680 5684 5686 5684 5675 5672 5666 5662 5649 5660 5653 5624 5626 5621 5616 5604 5595 5589 5584 5582 5580 5576 5572 5567 5568 5564 5558
5800 5810 5796 5789 5785 5781 5777 5765 5767 5763 5749 5728 5722 5703 5684 5684 5683 5677 5675 5673 5674 5674 5668 5659 5659 5650 5639 5616 5623 5614 5612 5607 5598 5594 5588 5580 5572 5568 5564 5561 5560 5560 5560 5556
5787 5787 5787 5784 5770 5773 5764 5756 5743 5745 5717 5721 5730 5723 5696 5697 5689 5673 5669 5665 5660 5663 5655 5652 5647 5643 5638 5634 5625 5614 5613 5608 5602 5595 5586 5575 5570 5565 5557 5557 5558 5555 5554 5552
5778 5735 5769 5781 5767 5756 5759 5753 5724 5703 5725 5738 5736 5707 5683 5696 5684 5671 5667 5664 5658 5651 5646 5642 5636 5631 5631 5629 5625 5617 5607 5597 5600 5596 5580 5572 5567 5563 5562 5556 5555 5551 5549 5548
5772 5758 5768 5767 5769 5758 5755 5737 5751 5719 5731 5726 5702 5678 5689 5690 5681 5668 5661 5655 5646 5642 5634 5624 5618 5615 5611 5609 5608 5604 5601 5595 5590 5584 5574 5571 5562 5557 5555 5550 5547 5547 5544 5544
5778 5750 5767 5758 5757 5758 5744 5749 5716 5734 5703 5709 5715 5701 5664 5666 5665 5658 5649 5645 5637 5627 5619 5612 5607 5603 5600 5598 5596 5591 5588 5579 5572 5576 5569 5562 5555 5547 5544 5548 5541 5540 5541 5538
5772 5754 5752 5753 5742 5734 5735 5735 5726 5718 5714 5700 5699 5671 5681 5669 5663 5656 5646 5632 5628 5619 5615 5612 5612 5606 5601 5594 5590 5584 5579 5577 5570 5562 5562 5555 5544 5539 5538 5536 5532 5537 5537 5534
5752 5744 5730 5743 5741 5738 5730 5717 5714 5698 5699 5715 5698 5672 5673 5666 5658 5647 5634 5620 5619 5616 5612 5606 5600 5597 5589 5583 5579 5573 5568 5565 5564 5559 5549 5542 5538 5530 5530 5531 5531 5531 5534 5536
5746 5736 5715 5726 5720 5722 5717 5713 5709 5704 5697 5689 5686 5662 5671 5659 5639 5628 5621 5612 5615 5608 5604 5598 5594 5590 5583 5578 5572 5566 5560 5555 5551 5541 5537 5531 5528 5523 5520 5521 5523 5526 5528 5533
5735 5724 5714 5711 5713 5718 5702 5700 5703 5694 5682 5689 5686 5668 5648 5638 5628 5619 5611 5613 5609 5603 5598 5593 5586 5581 5575 5570 5562 5556 5551 5546 5543 5538 5525 5521 5518 5517 5515 5516 5518 5523 5527 5533
5729 5709 5714 5715 5712 5710 5702 5696 5694 5687 5685 5667 5674 5664 5647 5634 5627 5623 5615 5607 5602 5598 5593 5587 5581 5573 5567 5558 5551 5546 5540 5534 5529 5532 5527 5515 5512 5513 5513 5514 5514 5520 5527 5531
5721 5704 5708 5697 5702 5700 5691 5690 5684 5680 5675 5671 5670 5658 5650 5638 5631 5618 5606 5601 5597 5592 5587 5581 5577 5569 5562 5552 5544 5538 5532 5529 5525 5521 5524 5516 5510 5512 5513 5511 5516 5521 5527 5532
5708 5704 5694 5695 5695 5690 5680 5692 5686 5680 5675 5665 5649 5644 5641 5632 5618 5608 5601 5598 5591 5585 5581 5577 5570 5561 5553 5545 5538 5530 5527 5520 5518 5519 5518 5520 5514 5514 5513 5515 5519 5524 5526 5534
5704 5695 5698 5690 5685 5660 5684 5698 5686 5672 5670 5662 5651 5642 5634 5619 5613 5609 5601 5593 5587 5582 5577 5572 5564 5554 5545 5539 5528 5522 5518 5518 5513 5513 5514 5516 5515 5514 5517 5516 5520 5522 5527 5530
5709 5698 5690 5679 5686 5700 5687 5681 5671 5664 5658 5660 5645 5635 5627 5616 5609 5604 5599 5591 5584 5580 5574 5566 5558 5549 5540 5530 5525 5518 5514 5509 5510 5506 5512 5509 5511 5512 5513 5514 5515 5518 5523 5528
5705 5698 5686 5687 5666 5668 5678 5676 5675 5664 5640 5652 5635 5625 5615 5607 5601 5601 5592 5588 5582 5574 5564 5555 5547 5542 5532 5524 5517 5507 5504 5506 5500 5499 5502 5502 5507 5511 5507 5508 5511 5515 5519 5523
5692 5684 5683 5682 5680 5685 5680 5672 5666 5634 5628 5633 5627 5618 5608 5597 5593 5589 5589 5582 5574 5563 5554 5546 5540 5531 5522 5514 5504 5497 5498 5492 5491 5493 5492 5493 5499 5503 5509 5508 5509 5513 5515 5521
5691 5685 5693 5694 5678 5665 5671 5661 5645 5637 5633 5626 5618 5613 5603 5596 5590 5587 5581 5572 5564 5555 5548 5540 5531 5522 5514 5502 5492 5487 5484 5479 5482 5483 5485 5485 5486 5494 5501 5506 5508 5511 5512 5517
5681 5685 5674 5674 5665 5663 5665 5653 5644 5637 5627 5620 5614 5607 5598 5590 5585 5579 5571 5566 5558 5549 5541 5533 5524 5516 5507 5497 5490 5485 5479 5473 5472 5473 5476 5479 5478 5481 5490 5497 5501 5505 5505 5509
5689 5686 5675 5669 5663 5657 5651 5645 5638 5631 5624 5617 5611 5602 5594 5583 5577 5571 5565 5559 5552 5543 5535 5528 5519 5509 5497 5491 5483 5473 5466 5465 5462 5460 5460 5461 5470 5470 5477 5486 5491 5498 5501 5504
5685 5678 5675 5667 5661 5650 5646 5639 5633 5625 5618 5611 5607 5598 5585 5576 5568 5564 5559 5552 5544 5536 5531 5522 5511 5501 5491 5484 5470 5465 5460 5455 5453 5450 5449 5445 5449 5458 5467 5473 5478 5485 5489 5491
5687 5675 5667 5660 5657 5649 5643 5635 5628 5617 5611 5605 5597 5589 5581 5572 5563 5558 5552 5545 5537 5531 5525 5518 5506 5495 5487 5475 5465 5458 5454 5448 5442 5438 5440 5436 5436 5442 5452 5464 5468 5470 5473 5479